Find Starlink 30303

NORAD ID: 57677 Int'l Des: 2023-124 Owner: SPXS Country: US Constellation: starlink operational
LEOCIRCULAR

現在のビュー

3D地球を読み込み中...

About Starlink 30303

Starlink 30303 (NORAD 57677) is a starlink constellation satellite (v2 mini) launched Aug 22, 2023 by SPXS of US. It operates in LEO, CIRCULAR orbit with a mass of 730.00 kg.

Starlink 30303について

説明を読み込み中...

次回通過

Passes for default location (London). Set your location on the main map for personalized predictions.

高度履歴

Loading altitude history...

軌道要素

1 57677U 23124Q 26170.52159318 .00001442 00000-0 60817-4 0 9991
2 57677 53.1606 93.4784 0001416 86.1463 273.9699 15.30190966159167
Epoch: Jun 19, 2026 • Age: 27 hours

現在のステータス

高度 475.1 km
速度 7.63 km/s
衛星直下点 11.80°N, 40.05°W
打ち上げ日 Aug 22, 2023
運用期間 2.8 years
タイプ internet

技術仕様

分類 Payload
質量 730.00 kg
乾燥質量 700.00 kg
総質量 730.00 kg
長さ 0.30 m
直径 4.10 m
スパン 29.00 m
形状 Box + pan
製造者 SPXS
バスタイプ Starlink V2M
フェーズステータス In Orbit
所有者/国 SPXS/US

Most Searched